Weather History for Enid, OK

Change the Weather History Date:

Sunday, February 9, 2014

  Actual Average Record
Temperature  
Mean Temperature 28 °F -  
Max Temperature 32 °F 47 °F 73 °F (2000)
Min Temperature 21 °F 30 °F 1 °F (2011)
Degree Days  
Heating Degree Days 38    
Moisture  
Dew Point 26 °F    
Average Humidity 91    
Maximum Humidity 100    
Minimum Humidity 80    
Precipitation  
Precipitation 0.00 in - - ()
Sea Level Pressure  
Sea Level Pressure 30.19 in    
Wind  
Wind Speed 9 mph (NNE)    
Max Wind Speed 20 mph    
Max Gust Speed 26 mph    
Visibility 5 miles    
Events      
Averages and records for this station are not official NWS values.
T = Trace of Precipitation, MM = Missing Value Source: NWS Daily Summary

Daily Weather History Graph

Daily Weather History Graph

Search for Another Location

Airport:

Trip Planner

Search our weather history database for the weather conditions in past years. The results will help you decide how hot, cold, wet, or windy it might be!

Date:

Astronomy

Feb. 09, 2014 Rise Set
Actual Time 7:25 AM CST 6:05 PM CST
Civil Twilight 6:58 AM CST 6:32 PM CST
Nautical Twilight 6:28 AM CST 7:03 PM CST
Astronomical Twilight 5:58 AM CST 7:33 PM CST
Moon 1:50 PM CST (2/9) 3:28 AM CST (2/9)
Length of Visible Light 11h 34m
Length of Day
10h 40m
Waxing Gibbous, 77% of the Moon is Illuminated
Feb 9
Waxing Gibbous
Feb 14
Full
Feb 22
Last Quarter
Mar 1
New
Mar 8
First Quarter

Hourly Weather History & Observations

Time (CST) Temp. Windchill Dew Point Humidity Pressure Visibility Wind Dir Wind Speed Gust Speed Precip Events Conditions
12:15 AM 32.0 °F 28.7 °F 30.2 °F 93% 30.10 in 4.0 mi ENE 3.5 mph - N/A   Overcast
12:35 AM 32.0 °F 27.5 °F 30.2 °F 93% 30.10 in 4.0 mi NE 4.6 mph - N/A   Overcast
12:55 AM 32.0 °F 28.7 °F 30.2 °F 93% 30.11 in 3.0 mi NNE 3.5 mph - N/A   Overcast
1:15 AM 32.0 °F - 30.2 °F 93% 30.10 in 3.0 mi Calm Calm - N/A   Overcast
1:35 AM 32.0 °F - 30.2 °F 93% 30.10 in 3.0 mi Calm Calm - N/A   Overcast
1:55 AM 32.0 °F 27.5 °F 30.2 °F 93% 30.11 in 3.0 mi NNE 4.6 mph - N/A   Overcast
2:15 AM 32.0 °F 26.4 °F 30.2 °F 93% 30.12 in 3.0 mi North 5.8 mph - N/A   Overcast
2:35 AM 32.0 °F 25.6 °F 30.2 °F 93% 30.14 in 3.0 mi North 6.9 mph - N/A   Overcast
2:55 AM 32.0 °F 26.4 °F 30.2 °F 93% 30.14 in 3.0 mi North 5.8 mph - N/A   Overcast
3:15 AM 30.2 °F 22.6 °F 30.2 °F 100% 30.12 in 3.0 mi NNE 8.1 mph - N/A   Overcast
3:35 AM 30.2 °F 21.9 °F 30.2 °F 100% 30.11 in 2.5 mi NE 9.2 mph - N/A   Overcast
3:55 AM 30.2 °F 21.9 °F 30.2 °F 100% 30.12 in 2.5 mi NNE 9.2 mph - N/A   Overcast
4:15 AM 30.2 °F 23.4 °F 30.2 °F 100% 30.13 in 2.5 mi NNE 6.9 mph - N/A   Overcast
4:35 AM 30.2 °F 21.9 °F 30.2 °F 100% 30.13 in 2.5 mi NNE 9.2 mph - N/A   Overcast
4:55 AM 30.2 °F 21.9 °F 30.2 °F 100% 30.12 in 2.5 mi NNE 9.2 mph - N/A   Overcast
6:17 AM 30.2 °F 18.5 °F 28.4 °F 93% 30.10 in 4.0 mi NNE 17.3 mph - N/A   Overcast
6:50 AM 30.2 °F 20.2 °F 28.4 °F 93% 30.10 in 5.0 mi NNE 12.7 mph - N/A   Overcast
7:50 AM 30.2 °F 19.3 °F 28.4 °F 93% 30.15 in 4.0 mi NNE 15.0 mph - N/A   Overcast
8:50 AM 30.2 °F 20.2 °F 28.4 °F 93% 30.17 in 4.0 mi NE 12.7 mph - N/A   Overcast
9:50 AM 30.2 °F 20.8 °F 26.6 °F 86% 30.20 in 5.0 mi NNE 11.5 mph - N/A   Overcast
10:55 AM 32.0 °F 21.2 °F 26.6 °F 80% 30.19 in 7.0 mi NNE 16.1 mph - N/A   Overcast
11:50 AM 32.0 °F 20.8 °F 26.6 °F 80% 30.19 in 5.0 mi NNE 17.3 mph - N/A   Overcast
12:55 PM 32.0 °F 22.1 °F 26.6 °F 80% 30.18 in 5.0 mi North 13.8 mph - N/A   Overcast
1:50 PM 30.2 °F 21.3 °F 26.6 °F 86% 30.17 in 2.0 mi North 10.4 mph 18.4 mph N/A   Overcast
2:50 PM 28.4 °F 15.4 °F 28.4 °F 100% 30.18 in 1.5 mi NNE 19.6 mph - N/A   Overcast
3:50 PM 26.6 °F 14.7 °F 26.6 °F 100% 30.19 in 1.2 mi North 15.0 mph 20.7 mph N/A   Overcast
4:50 PM 28.4 °F 16.2 °F 26.6 °F 93% 30.19 in - NNE 17.3 mph - N/A   Overcast
5:50 PM 26.6 °F 13.8 °F 26.6 °F 100% 30.20 in 1.8 mi North 17.3 mph - N/A   Overcast
6:50 PM 26.6 °F 13.1 °F 23.0 °F 86% 30.24 in 5.0 mi North 19.6 mph 26.5 mph N/A   Overcast
7:50 PM 24.8 °F 11.5 °F 21.2 °F 86% 30.24 in 5.0 mi NNE 17.3 mph 23.0 mph N/A   Overcast
8:15 PM 24.8 °F 12.4 °F 21.2 °F 86% 30.24 in 7.0 mi NNE 15.0 mph - N/A   Overcast
8:35 PM 24.8 °F 11.5 °F 21.2 °F 86% 30.25 in 10.0 mi NNE 17.3 mph - N/A   Overcast
8:50 PM 24.8 °F 11.5 °F 19.4 °F 80% 30.26 in 5.0 mi North 17.3 mph 23.0 mph N/A   Overcast
8:55 PM 24.8 °F 14.0 °F 21.2 °F 86% 30.27 in 10.0 mi NNE 11.5 mph - N/A   Overcast
9:15 PM 24.8 °F 12.9 °F 19.4 °F 80% 30.26 in 10.0 mi NNE 13.8 mph - N/A   Overcast
9:35 PM 23.0 °F 11.7 °F 21.2 °F 93% 30.26 in 10.0 mi NNE 11.5 mph - N/A   Overcast
9:55 PM 23.0 °F 10.1 °F 19.4 °F 86% 30.26 in 10.0 mi NNE 15.0 mph - N/A   Overcast
10:15 PM 23.0 °F 10.1 °F 19.4 °F 86% 30.28 in 10.0 mi NNE 15.0 mph - N/A   Overcast
10:35 PM 23.0 °F 9.6 °F 19.4 °F 86% 30.28 in 10.0 mi NNE 16.1 mph - N/A   Overcast
10:55 PM 23.0 °F 9.6 °F 19.4 °F 86% 30.29 in 10.0 mi NNE 16.1 mph 21.9 mph N/A   Overcast
11:15 PM 23.0 °F 9.6 °F 19.4 °F 86% 30.29 in 10.0 mi NNE 16.1 mph - N/A   Overcast
11:35 PM 23.0 °F 9.2 °F 19.4 °F 86% 30.30 in 10.0 mi NNE 17.3 mph - N/A   Overcast
11:55 PM 21.2 °F 6.8 °F 17.6 °F 86% 30.31 in 10.0 mi NNE 17.3 mph - N/A   Overcast